Hourly Data Report for September 17, 2017

All times are specified in Local Standard Time (LST). Add 1 hour to adjust for Daylight Saving Time where and when it is observed.

SUSSEX FOUR CORNERS
NEW BRUNSWICK

45°44'30.048" N
65°31'44.039" W
47.00 m
8105210
71656
ASF

Download Data

Hourly Data (September 2017)
Hourly Data Report for September 17, 2017
Temp Definition
°C
Dew Point Temp Definition
°C
Rel Hum Definition
%
Wind Dir Definition
10's deg

Wind Spd Definition
km/h
Visibility Definition
km
Stn Press Definition
kPa
Hmdx Definition


Wind Chill Definition


Weather Definition


TIME
00:00 13.8 12.4 91 3 9   101.46     LegendNANA
01:00 14.3 12.6 89 3 14   101.51     LegendNANA
02:00 14.3 12.8 91 7 5   101.46     LegendNANA
03:00 14.2 12.6 90 5 7   101.40     LegendNANA
04:00 14.2 12.7 91 3 7   101.44     LegendNANA
05:00 14.3 12.9 91 6 4   101.48     LegendNANA
06:00 14.3 13.0 92 34 4   101.51     LegendNANA
07:00 14.4 13.1 92 2 4   101.54     LegendNANA
08:00 14.7 13.1 90 6 4   101.57     LegendNANA
09:00 15.9 13.8 87 17 5   101.57     LegendNANA
10:00 16.3 14.4 89 35 4   101.59     LegendNANA
11:00 17.5 15.0 85 16 3   101.55     LegendNANA
12:00 19.5 16.0 80 20 5   101.49     LegendNANA
13:00 21.2 16.6 75 27 6   101.45 26   LegendNANA
14:00 22.2 17.4 75 23 6   101.42 28   LegendNANA
15:00 22.9 17.6 72 24 4   101.38 29   LegendNANA
16:00 23.4 18.2 73 23 8   101.36 30   LegendNANA
17:00 23.1 17.8 72 25 7   101.36 29   LegendNANA
18:00 21.5 18.0 80 24 8   101.37 28   LegendNANA
19:00 18.9 16.9 88 24 10   101.41     LegendNANA
20:00 17.4 16.1 92 24 8   101.43     LegendNANA
21:00 16.1 15.3 95 27 7   101.50     LegendNANA
22:00 16.1 15.4 96 27 5   101.55     LegendNANA
23:00 15.4 14.8 96 25 7   101.54     LegendNANA

Notes on Data Quality.

Legend

  • E = Estimated
  • M = Missing
  • NA = Not Available
  • ‡ = Partner data that is not subject to review by the National Climate Archives
Date modified: